Location: Songkhla
(7.2000°N, 100.6000°E)
Time: 04:51:02
(UTC+07:00)

First-Move - Pass Details

Date: 06 August 2021
Orbit: 576 x 665 km, 97.6° (Epoch: 15 September)

Event Time Altitude Azimuth Distance (km) Brightness Sun altitude
Rises 04:54:17 0° 4° (N) 2,977 ? -19.0°
Reaches altitude 10° 04:56:31 10° 1° (N) 2,073 ? -18.4°
Maximum altitude 05:00:59 59° 282° (WNW) 768 ? -17.4°
Enters shadow 05:04:01 20° 208° (SSW) 1,518 ? -16.7°
